Year,Month,Day,Hour,Minute,Value (Times are PST for temperature in C)
2018,10,18,00,00,9.40
2018,10,18,00,01,9.40
2018,10,18,00,02,9.40
2018,10,18,00,03,9.40
2018,10,18,00,04,9.30
2018,10,18,00,05,9.30
2018,10,18,00,06,9.30
2018,10,18,00,07,9.30
2018,10,18,00,08,9.30
2018,10,18,00,09,9.30
2018,10,18,00,10,9.30
2018,10,18,00,11,9.30
2018,10,18,00,12,9.30
2018,10,18,00,13,9.20
2018,10,18,00,14,9.20
2018,10,18,00,15,9.20
2018,10,18,00,16,9.20
2018,10,18,00,17,9.20
2018,10,18,00,18,9.20
2018,10,18,00,19,9.20
2018,10,18,00,20,9.20
2018,10,18,00,21,9.20
2018,10,18,00,22,9.10
2018,10,18,00,23,9.10
2018,10,18,00,24,9.10
2018,10,18,00,25,9.10
2018,10,18,00,26,9.10
2018,10,18,00,27,9.10
2018,10,18,00,28,9.10
2018,10,18,00,29,9.10
2018,10,18,00,30,9.00
2018,10,18,00,31,9.00
2018,10,18,00,32,9.00
2018,10,18,00,33,9.00
2018,10,18,00,34,9.00
2018,10,18,00,35,8.90
2018,10,18,00,36,8.90
2018,10,18,00,37,8.90
2018,10,18,00,38,8.90
2018,10,18,00,39,8.90
2018,10,18,00,40,8.90
2018,10,18,00,41,8.80
2018,10,18,00,42,8.80
2018,10,18,00,43,8.80
2018,10,18,00,44,8.80
2018,10,18,00,45,8.80
2018,10,18,00,46,8.80
2018,10,18,00,47,8.70
2018,10,18,00,48,8.70
2018,10,18,00,49,8.70
2018,10,18,00,50,8.70
2018,10,18,00,51,8.70
2018,10,18,00,52,8.70
2018,10,18,00,53,8.70
2018,10,18,00,54,8.60
2018,10,18,00,55,8.60
2018,10,18,00,56,8.60
2018,10,18,00,57,8.60
2018,10,18,00,58,8.60
2018,10,18,00,59,8.60
2018,10,18,01,00,8.60
2018,10,18,01,01,8.50
2018,10,18,01,02,8.50
2018,10,18,01,03,8.50
2018,10,18,01,04,8.50
2018,10,18,01,05,8.50
2018,10,18,01,06,8.40
2018,10,18,01,07,8.40
2018,10,18,01,08,8.40
2018,10,18,01,09,8.40
2018,10,18,01,10,8.40
2018,10,18,01,11,8.40
2018,10,18,01,12,8.30
2018,10,18,01,13,8.30
2018,10,18,01,14,8.30
2018,10,18,01,15,8.30
2018,10,18,01,16,8.30
2018,10,18,01,17,8.30
2018,10,18,01,18,8.30
2018,10,18,01,19,8.30
2018,10,18,01,20,8.30
2018,10,18,01,21,8.30
2018,10,18,01,22,8.20
2018,10,18,01,23,8.20
2018,10,18,01,24,8.20
2018,10,18,01,25,8.20
2018,10,18,01,26,8.20
2018,10,18,01,27,8.20
2018,10,18,01,28,8.20
2018,10,18,01,29,8.20
2018,10,18,01,30,8.10
2018,10,18,01,31,8.10
2018,10,18,01,32,8.10
2018,10,18,01,33,8.10
2018,10,18,01,34,8.10
2018,10,18,01,35,8.10
2018,10,18,01,36,8.10
2018,10,18,01,37,8.10
2018,10,18,01,38,8.10
2018,10,18,01,39,8.10
2018,10,18,01,40,8.10
2018,10,18,01,41,8.10
2018,10,18,01,42,8.10
2018,10,18,01,43,8.10
2018,10,18,01,44,8.10
2018,10,18,01,45,8.10
2018,10,18,01,46,8.10
2018,10,18,01,47,8.10
2018,10,18,01,48,8.10
2018,10,18,01,49,8.10
2018,10,18,01,50,8.10
2018,10,18,01,51,8.10
2018,10,18,01,52,8.10
2018,10,18,01,53,8.00
2018,10,18,01,54,8.00
2018,10,18,01,55,8.00
2018,10,18,01,56,8.00
2018,10,18,01,57,8.00
2018,10,18,01,58,8.00
2018,10,18,01,59,8.00
2018,10,18,02,00,8.00
2018,10,18,02,01,8.00
2018,10,18,02,02,8.00
2018,10,18,02,03,8.00
2018,10,18,02,04,8.00
2018,10,18,02,05,8.00
2018,10,18,02,06,8.00
2018,10,18,02,07,8.00
2018,10,18,02,08,8.00
2018,10,18,02,09,8.00
2018,10,18,02,10,7.90
2018,10,18,02,11,7.90
2018,10,18,02,12,7.90
2018,10,18,02,13,7.90
2018,10,18,02,14,7.90
2018,10,18,02,15,7.90
2018,10,18,02,16,7.90
2018,10,18,02,17,7.90
2018,10,18,02,18,7.90
2018,10,18,02,19,7.90
2018,10,18,02,20,7.90
2018,10,18,02,21,7.90
2018,10,18,02,22,7.90
2018,10,18,02,23,7.90
2018,10,18,02,24,7.80
2018,10,18,02,25,7.80
2018,10,18,02,26,7.80
2018,10,18,02,27,7.80
2018,10,18,02,28,7.80
2018,10,18,02,29,7.80
2018,10,18,02,30,7.80
2018,10,18,02,31,7.80
2018,10,18,02,32,7.80
2018,10,18,02,33,7.80
2018,10,18,02,34,7.80
2018,10,18,02,35,7.80
2018,10,18,02,36,7.80
2018,10,18,02,37,7.80
2018,10,18,02,38,7.80
2018,10,18,02,39,7.80
2018,10,18,02,40,7.80
2018,10,18,02,41,7.80
2018,10,18,02,42,7.80
2018,10,18,02,43,7.80
2018,10,18,02,44,7.80
2018,10,18,02,45,7.80
2018,10,18,02,46,7.70
2018,10,18,02,47,7.70
2018,10,18,02,48,7.70
2018,10,18,02,49,7.70
2018,10,18,02,50,7.70
2018,10,18,02,51,7.70
2018,10,18,02,52,7.70
2018,10,18,02,53,7.70
2018,10,18,02,54,7.70
2018,10,18,02,55,7.70
2018,10,18,02,56,7.70
2018,10,18,02,57,7.70
2018,10,18,02,58,7.70
2018,10,18,02,59,7.70
2018,10,18,03,00,7.70
2018,10,18,03,01,7.70
2018,10,18,03,02,7.70
2018,10,18,03,03,7.60
2018,10,18,03,04,7.60
2018,10,18,03,05,7.60
2018,10,18,03,06,7.60
2018,10,18,03,07,7.60
2018,10,18,03,08,7.60
2018,10,18,03,09,7.60
2018,10,18,03,10,7.60
2018,10,18,03,11,7.50
2018,10,18,03,12,7.50
2018,10,18,03,13,7.50
2018,10,18,03,14,7.50
2018,10,18,03,15,7.50
2018,10,18,03,16,7.50
2018,10,18,03,17,7.50
2018,10,18,03,18,7.50
2018,10,18,03,19,7.40
2018,10,18,03,20,7.40
2018,10,18,03,21,7.40
2018,10,18,03,22,7.40
2018,10,18,03,23,7.40
2018,10,18,03,24,7.40
2018,10,18,03,25,7.40
2018,10,18,03,26,7.40
2018,10,18,03,27,7.50
2018,10,18,03,28,7.50
2018,10,18,03,29,7.50
2018,10,18,03,30,7.50
2018,10,18,03,31,7.50
2018,10,18,03,32,7.50
2018,10,18,03,33,7.50
2018,10,18,03,34,7.50
2018,10,18,03,35,7.50
2018,10,18,03,36,7.60
2018,10,18,03,37,7.60
2018,10,18,03,38,7.60
2018,10,18,03,39,7.60
2018,10,18,03,40,7.60
2018,10,18,03,41,7.60
2018,10,18,03,42,7.60
2018,10,18,03,43,7.60
2018,10,18,03,44,7.60
2018,10,18,03,45,7.60
2018,10,18,03,46,7.60
2018,10,18,03,47,7.60
2018,10,18,03,48,7.60
2018,10,18,03,49,7.60
2018,10,18,03,50,7.60
2018,10,18,03,51,7.60
2018,10,18,03,52,7.60
2018,10,18,03,53,7.60
2018,10,18,03,54,7.60
2018,10,18,03,55,7.60
2018,10,18,03,56,7.60
2018,10,18,03,57,7.60
2018,10,18,03,58,7.60
2018,10,18,03,59,7.60
2018,10,18,04,00,7.60
2018,10,18,04,01,7.60
2018,10,18,04,02,7.60
2018,10,18,04,03,7.60
2018,10,18,04,04,7.60
2018,10,18,04,05,7.60
2018,10,18,04,06,7.60
2018,10,18,04,07,7.60
2018,10,18,04,08,7.60
2018,10,18,04,09,7.60
2018,10,18,04,10,7.60
2018,10,18,04,11,7.60
2018,10,18,04,12,7.60
2018,10,18,04,13,7.60
2018,10,18,04,14,7.60
2018,10,18,04,15,7.60
2018,10,18,04,16,7.60
2018,10,18,04,17,7.60
2018,10,18,04,18,7.60
2018,10,18,04,19,7.60
2018,10,18,04,20,7.60
2018,10,18,04,21,7.60
2018,10,18,04,22,7.60
2018,10,18,04,23,7.60
2018,10,18,04,24,7.60
2018,10,18,04,25,7.60
2018,10,18,04,26,7.60
2018,10,18,04,27,7.60
2018,10,18,04,28,7.60
2018,10,18,04,29,7.60
2018,10,18,04,30,7.60
2018,10,18,04,31,7.60
2018,10,18,04,32,7.60
2018,10,18,04,33,7.60
2018,10,18,04,34,7.60
2018,10,18,04,35,7.60
2018,10,18,04,36,7.60
2018,10,18,04,37,7.60
2018,10,18,04,38,7.60
2018,10,18,04,39,7.60
2018,10,18,04,40,7.60
2018,10,18,04,41,7.60
2018,10,18,04,42,7.60
2018,10,18,04,43,7.60
2018,10,18,04,44,7.60
2018,10,18,04,45,7.60
2018,10,18,04,46,7.60
2018,10,18,04,47,7.60
2018,10,18,04,48,7.60
2018,10,18,04,49,7.60
2018,10,18,04,50,7.60
2018,10,18,04,51,7.60
2018,10,18,04,52,7.60
2018,10,18,04,53,7.60
2018,10,18,04,54,7.60
2018,10,18,04,55,7.60
2018,10,18,04,56,7.60
2018,10,18,04,57,7.60
2018,10,18,04,58,7.60
2018,10,18,04,59,7.60
2018,10,18,05,00,7.60
2018,10,18,05,01,7.60
2018,10,18,05,02,7.60
2018,10,18,05,03,7.50
2018,10,18,05,04,7.50
2018,10,18,05,05,7.50
2018,10,18,05,06,7.50
2018,10,18,05,07,7.50
2018,10,18,05,08,7.50
2018,10,18,05,09,7.50
2018,10,18,05,10,7.50
2018,10,18,05,11,7.60
2018,10,18,05,12,7.60
2018,10,18,05,13,7.60
2018,10,18,05,14,7.60
2018,10,18,05,15,7.60
2018,10,18,05,16,7.60
2018,10,18,05,17,7.60
2018,10,18,05,18,7.60
2018,10,18,05,19,7.60
2018,10,18,05,20,7.60
2018,10,18,05,21,7.60
2018,10,18,05,22,7.60
2018,10,18,05,23,7.60
2018,10,18,05,24,7.60
2018,10,18,05,25,7.60
2018,10,18,05,26,7.60
2018,10,18,05,27,7.60
2018,10,18,05,28,7.60
2018,10,18,05,29,7.60
2018,10,18,05,30,7.60
2018,10,18,05,31,7.70
2018,10,18,05,32,7.70
2018,10,18,05,33,7.70
2018,10,18,05,34,7.70
2018,10,18,05,35,7.70
2018,10,18,05,36,7.70
2018,10,18,05,37,7.70
2018,10,18,05,38,7.70
2018,10,18,05,39,7.70
2018,10,18,05,40,7.70
2018,10,18,05,41,7.70
2018,10,18,05,42,7.70
2018,10,18,05,43,7.70
2018,10,18,05,44,7.70
2018,10,18,05,45,7.70
2018,10,18,05,46,7.70
2018,10,18,05,47,7.70
2018,10,18,05,48,7.70
2018,10,18,05,49,7.70
2018,10,18,05,50,7.70
2018,10,18,05,51,7.70
2018,10,18,05,52,7.70
2018,10,18,05,53,7.70
2018,10,18,05,54,7.70
2018,10,18,05,55,7.70
2018,10,18,05,56,7.70
2018,10,18,05,57,7.70
2018,10,18,05,58,7.70
2018,10,18,05,59,7.70
2018,10,18,06,00,7.70
2018,10,18,06,01,7.70
2018,10,18,06,02,7.70
2018,10,18,06,03,7.70
2018,10,18,06,04,7.70
2018,10,18,06,05,7.70
2018,10,18,06,06,7.70
2018,10,18,06,07,7.70
2018,10,18,06,08,7.70
2018,10,18,06,09,7.70
2018,10,18,06,10,7.70
2018,10,18,06,11,7.70
2018,10,18,06,12,7.70
2018,10,18,06,13,7.70
2018,10,18,06,14,7.70
2018,10,18,06,15,7.70
2018,10,18,06,16,7.70
2018,10,18,06,17,7.70
2018,10,18,06,18,7.70
2018,10,18,06,19,7.70
2018,10,18,06,20,7.70
2018,10,18,06,21,7.70
2018,10,18,06,22,7.70
2018,10,18,06,23,7.70
2018,10,18,06,24,7.70
2018,10,18,06,25,7.70
2018,10,18,06,26,7.70
2018,10,18,06,27,7.70
2018,10,18,06,28,7.70
2018,10,18,06,29,7.80
2018,10,18,06,30,7.80
2018,10,18,06,31,7.80
2018,10,18,06,32,7.80
2018,10,18,06,33,7.80
2018,10,18,06,34,7.80
2018,10,18,06,35,7.80
2018,10,18,06,36,7.80
2018,10,18,06,37,7.80
2018,10,18,06,38,7.80
2018,10,18,06,39,7.80
2018,10,18,06,40,7.80
2018,10,18,06,41,7.80
2018,10,18,06,42,7.80
2018,10,18,06,43,7.80
2018,10,18,06,44,7.80
2018,10,18,06,45,7.70
2018,10,18,06,46,7.70
2018,10,18,06,47,7.70
2018,10,18,06,48,7.70
2018,10,18,06,49,7.70
2018,10,18,06,50,7.70
2018,10,18,06,51,7.70
2018,10,18,06,52,7.70
2018,10,18,06,53,7.70
2018,10,18,06,54,7.70
2018,10,18,06,55,7.70
2018,10,18,06,56,7.70
2018,10,18,06,57,7.70
2018,10,18,06,58,7.70
2018,10,18,06,59,7.70
2018,10,18,07,00,7.70
2018,10,18,07,01,7.70
2018,10,18,07,02,7.70
2018,10,18,07,03,7.70
2018,10,18,07,04,7.70
2018,10,18,07,05,7.70
2018,10,18,07,06,7.70
2018,10,18,07,07,7.70
2018,10,18,07,08,7.70
2018,10,18,07,09,7.70
2018,10,18,07,10,7.70
2018,10,18,07,11,7.60
2018,10,18,07,12,7.60
2018,10,18,07,13,7.60
2018,10,18,07,14,7.60
2018,10,18,07,15,7.60
2018,10,18,07,16,7.60
2018,10,18,07,17,7.60
2018,10,18,07,18,7.60
2018,10,18,07,19,7.60
2018,10,18,07,20,7.60
2018,10,18,07,21,7.60
2018,10,18,07,22,7.60
2018,10,18,07,23,7.60
2018,10,18,07,24,7.60
2018,10,18,07,25,7.60
2018,10,18,07,26,7.60
2018,10,18,07,27,7.60
2018,10,18,07,28,7.60
2018,10,18,07,29,7.60
2018,10,18,07,30,7.60
2018,10,18,07,31,7.60
2018,10,18,07,32,7.60
2018,10,18,07,33,7.60
2018,10,18,07,34,7.60
2018,10,18,07,35,7.60
2018,10,18,07,36,7.60
2018,10,18,07,37,7.60
2018,10,18,07,38,7.60
2018,10,18,07,39,7.50
2018,10,18,07,40,7.50
2018,10,18,07,41,7.50
2018,10,18,07,42,7.50
2018,10,18,07,43,7.50
2018,10,18,07,44,7.50
2018,10,18,07,45,7.50
2018,10,18,07,46,7.50
2018,10,18,07,47,7.50
2018,10,18,07,48,7.50
2018,10,18,07,49,7.50
2018,10,18,07,50,7.40
2018,10,18,07,51,7.40
2018,10,18,07,52,7.40
2018,10,18,07,53,7.40
2018,10,18,07,54,7.40
2018,10,18,07,55,7.40
2018,10,18,07,56,7.40
2018,10,18,07,57,7.40
2018,10,18,07,58,7.40
2018,10,18,07,59,7.30
2018,10,18,08,00,7.30
2018,10,18,08,01,7.30
2018,10,18,08,02,7.30
2018,10,18,08,03,7.30
2018,10,18,08,04,7.30
2018,10,18,08,05,7.30
2018,10,18,08,06,7.30
2018,10,18,08,07,7.30
2018,10,18,08,08,7.30
2018,10,18,08,09,7.30
2018,10,18,08,10,7.30
2018,10,18,08,11,7.30
2018,10,18,08,12,7.30
2018,10,18,08,13,7.30
2018,10,18,08,14,7.30
2018,10,18,08,15,7.30
2018,10,18,08,16,7.30
2018,10,18,08,17,7.30
2018,10,18,08,18,7.30
2018,10,18,08,19,7.30
2018,10,18,08,20,7.30
2018,10,18,08,21,7.30
2018,10,18,08,22,7.40
2018,10,18,08,23,7.40
2018,10,18,08,24,7.40
2018,10,18,08,25,7.40
2018,10,18,08,26,7.50
2018,10,18,08,27,7.50
2018,10,18,08,28,7.60
2018,10,18,08,29,7.60
2018,10,18,08,30,7.60
2018,10,18,08,31,7.70
2018,10,18,08,32,7.70
2018,10,18,08,33,7.70
2018,10,18,08,34,7.80
2018,10,18,08,35,7.80
2018,10,18,08,36,7.80
2018,10,18,08,37,7.90
2018,10,18,08,38,7.90
2018,10,18,08,39,7.90
2018,10,18,08,40,8.00
2018,10,18,08,41,8.00
2018,10,18,08,42,8.10
2018,10,18,08,43,8.10
2018,10,18,08,44,8.20
2018,10,18,08,45,8.20
2018,10,18,08,46,8.20
2018,10,18,08,47,8.20
2018,10,18,08,48,8.30
2018,10,18,08,49,8.30
2018,10,18,08,50,8.30
2018,10,18,08,51,8.40
2018,10,18,08,52,8.40
2018,10,18,08,53,8.40
2018,10,18,08,54,8.50
2018,10,18,08,55,8.50
2018,10,18,08,56,8.50
2018,10,18,08,57,8.60
2018,10,18,08,58,8.60
2018,10,18,08,59,8.60
2018,10,18,09,00,8.60
2018,10,18,09,01,8.70
2018,10,18,09,02,8.70
2018,10,18,09,03,8.70
2018,10,18,09,04,8.70
2018,10,18,09,05,8.80
2018,10,18,09,06,8.80
2018,10,18,09,07,8.80
2018,10,18,09,08,8.80
2018,10,18,09,09,8.90
2018,10,18,09,10,8.90
2018,10,18,09,11,8.90
2018,10,18,09,12,9.00
2018,10,18,09,13,9.00
2018,10,18,09,14,9.00
2018,10,18,09,15,9.10
2018,10,18,09,16,9.10
2018,10,18,09,17,9.10
2018,10,18,09,18,9.20
2018,10,18,09,19,9.20
2018,10,18,09,20,9.30
2018,10,18,09,21,9.30
2018,10,18,09,22,9.30
2018,10,18,09,23,9.30
2018,10,18,09,24,9.40
2018,10,18,09,25,9.40
2018,10,18,09,26,9.40
2018,10,18,09,27,9.50
2018,10,18,09,28,9.50
2018,10,18,09,29,9.50
2018,10,18,09,30,9.60
2018,10,18,09,31,9.60
2018,10,18,09,32,9.60
2018,10,18,09,33,9.60
2018,10,18,09,34,9.70
2018,10,18,09,35,9.70
2018,10,18,09,36,9.70
2018,10,18,09,37,9.70
2018,10,18,09,38,9.80
2018,10,18,09,39,9.80
2018,10,18,09,40,9.80
2018,10,18,09,41,9.80
2018,10,18,09,42,9.90
2018,10,18,09,43,9.90
2018,10,18,09,44,9.90
2018,10,18,09,45,9.90
2018,10,18,09,46,9.90
2018,10,18,09,47,10.00
2018,10,18,09,48,10.00
2018,10,18,09,49,10.10
2018,10,18,09,50,10.10
2018,10,18,09,51,10.10
2018,10,18,09,52,10.10
2018,10,18,09,53,10.10
2018,10,18,09,54,10.20
2018,10,18,09,55,10.20
2018,10,18,09,56,10.20
2018,10,18,09,57,10.20
2018,10,18,09,58,10.20
2018,10,18,09,59,10.30
2018,10,18,10,00,10.30
2018,10,18,10,01,10.30
2018,10,18,10,02,10.30
2018,10,18,10,03,10.30
2018,10,18,10,04,10.40
2018,10,18,10,05,10.40
2018,10,18,10,06,10.40
2018,10,18,10,07,10.50
2018,10,18,10,08,10.50
2018,10,18,10,09,10.50
2018,10,18,10,10,10.60
2018,10,18,10,11,10.60
2018,10,18,10,12,10.60
2018,10,18,10,13,10.70
2018,10,18,10,14,10.70
2018,10,18,10,15,10.70
2018,10,18,10,16,10.70
2018,10,18,10,17,10.70
2018,10,18,10,18,10.80
2018,10,18,10,19,10.80
2018,10,18,10,20,10.80
2018,10,18,10,21,10.80
2018,10,18,10,22,10.90
2018,10,18,10,23,10.90
2018,10,18,10,24,10.90
2018,10,18,10,25,10.90
2018,10,18,10,26,11.00
2018,10,18,10,27,11.00
2018,10,18,10,28,11.10
2018,10,18,10,29,11.10
2018,10,18,10,30,11.10
2018,10,18,10,31,11.20
2018,10,18,10,32,11.20
2018,10,18,10,33,11.20
2018,10,18,10,34,11.30
2018,10,18,10,35,11.30
2018,10,18,10,36,11.40
2018,10,18,10,37,11.40
2018,10,18,10,38,11.50
2018,10,18,10,39,11.50
2018,10,18,10,40,11.60
2018,10,18,10,41,11.70
2018,10,18,10,42,11.70
2018,10,18,10,43,11.80
2018,10,18,10,44,11.80
2018,10,18,10,45,11.90
2018,10,18,10,46,12.00
2018,10,18,10,47,12.00
2018,10,18,10,48,12.10
2018,10,18,10,49,12.20
2018,10,18,10,50,12.20
2018,10,18,10,51,12.30
2018,10,18,10,52,12.30
2018,10,18,10,53,12.40
2018,10,18,10,54,12.40
2018,10,18,10,55,12.40
2018,10,18,10,56,12.50
2018,10,18,10,57,12.60
2018,10,18,10,58,12.60
2018,10,18,10,59,12.70
2018,10,18,11,00,12.80
2018,10,18,11,01,12.80
2018,10,18,11,02,12.90
2018,10,18,11,03,12.90
2018,10,18,11,04,13.00
2018,10,18,11,05,13.10
2018,10,18,11,06,13.10
2018,10,18,11,07,13.20
2018,10,18,11,08,13.30
2018,10,18,11,09,13.30
2018,10,18,11,10,13.40
2018,10,18,11,11,13.50
2018,10,18,11,12,13.60
2018,10,18,11,13,13.60
2018,10,18,11,14,13.70
2018,10,18,11,15,13.80
2018,10,18,11,16,13.90
2018,10,18,11,17,14.00
2018,10,18,11,18,14.10
2018,10,18,11,19,14.20
2018,10,18,11,20,14.20
2018,10,18,11,21,14.30
2018,10,18,11,22,14.40
2018,10,18,11,23,14.50
2018,10,18,11,24,14.60
2018,10,18,11,25,14.70
2018,10,18,11,26,14.70
2018,10,18,11,27,14.80
2018,10,18,11,28,14.90
2018,10,18,11,29,14.90
2018,10,18,11,30,15.00
2018,10,18,11,31,15.10
2018,10,18,11,32,15.10
2018,10,18,11,33,15.20
2018,10,18,11,34,15.30
2018,10,18,11,35,15.30
2018,10,18,11,36,15.40
2018,10,18,11,37,15.40
2018,10,18,11,38,15.50
2018,10,18,11,39,15.60
2018,10,18,11,40,15.60
2018,10,18,11,41,15.70
2018,10,18,11,42,15.70
2018,10,18,11,43,15.80
2018,10,18,11,44,15.80
2018,10,18,11,45,15.80
2018,10,18,11,46,15.90
2018,10,18,11,47,15.90
2018,10,18,11,48,16.00
2018,10,18,11,49,16.00
2018,10,18,11,50,16.10
2018,10,18,11,51,16.10
2018,10,18,11,52,16.10
2018,10,18,11,53,16.20
2018,10,18,11,54,16.30
2018,10,18,11,55,16.30
2018,10,18,11,56,16.40
2018,10,18,11,57,16.40
2018,10,18,11,58,16.50
2018,10,18,11,59,16.60
2018,10,18,12,00,16.60
2018,10,18,12,01,16.70
2018,10,18,12,02,16.80
2018,10,18,12,03,16.80
2018,10,18,12,04,16.80
2018,10,18,12,05,16.90
2018,10,18,12,06,17.00
2018,10,18,12,07,17.00
2018,10,18,12,08,17.10
2018,10,18,12,09,17.10
2018,10,18,12,10,17.10
2018,10,18,12,11,17.20
2018,10,18,12,12,17.20
2018,10,18,12,13,17.20
2018,10,18,12,14,17.20
2018,10,18,12,15,17.10
2018,10,18,12,16,17.10
2018,10,18,12,17,17.20
2018,10,18,12,18,17.20
2018,10,18,12,19,17.20
2018,10,18,12,20,17.20
2018,10,18,12,21,17.20
2018,10,18,12,22,17.30
2018,10,18,12,23,17.30
2018,10,18,12,24,17.40
2018,10,18,12,25,17.40
2018,10,18,12,26,17.50
2018,10,18,12,27,17.50
2018,10,18,12,28,17.60
2018,10,18,12,29,17.60
2018,10,18,12,30,17.60
2018,10,18,12,31,17.70
2018,10,18,12,32,17.70
2018,10,18,12,33,17.80
2018,10,18,12,34,17.90
2018,10,18,12,35,17.90
2018,10,18,12,36,18.00
2018,10,18,12,37,18.10
2018,10,18,12,38,18.10
2018,10,18,12,39,18.10
2018,10,18,12,40,18.20
2018,10,18,12,41,18.20
2018,10,18,12,42,18.20
2018,10,18,12,43,18.20
2018,10,18,12,44,18.20
2018,10,18,12,45,18.20
2018,10,18,12,46,18.20
2018,10,18,12,47,18.20
2018,10,18,12,48,18.20
2018,10,18,12,49,18.20
2018,10,18,12,50,18.30
2018,10,18,12,51,18.30
2018,10,18,12,52,18.30
2018,10,18,12,53,18.30
2018,10,18,12,54,18.30
2018,10,18,12,55,18.40
2018,10,18,12,56,18.40
2018,10,18,12,57,18.50
2018,10,18,12,58,18.50
2018,10,18,12,59,18.50
2018,10,18,13,00,18.60
2018,10,18,13,01,18.50
2018,10,18,13,02,18.60
2018,10,18,13,03,18.60
2018,10,18,13,04,18.60
2018,10,18,13,05,18.60
2018,10,18,13,06,18.70
2018,10,18,13,07,18.70
2018,10,18,13,08,18.80
2018,10,18,13,09,18.80
2018,10,18,13,10,18.90
2018,10,18,13,11,18.90
2018,10,18,13,12,19.00
2018,10,18,13,13,19.00
2018,10,18,13,14,19.10
2018,10,18,13,15,19.10
2018,10,18,13,16,19.10
2018,10,18,13,17,19.10
2018,10,18,13,18,19.10
2018,10,18,13,19,19.10
2018,10,18,13,20,19.20
2018,10,18,13,21,19.20
2018,10,18,13,22,19.20
2018,10,18,13,23,19.20
2018,10,18,13,24,19.20
2018,10,18,13,25,19.10
2018,10,18,13,26,19.10
2018,10,18,13,27,19.10
2018,10,18,13,28,19.10
2018,10,18,13,29,19.10
2018,10,18,13,30,19.10
2018,10,18,13,31,19.10
2018,10,18,13,32,19.10
2018,10,18,13,33,19.10
2018,10,18,13,34,19.10
2018,10,18,13,35,19.20
2018,10,18,13,36,19.20
2018,10,18,13,37,19.20
2018,10,18,13,38,19.20
2018,10,18,13,39,19.30
2018,10,18,13,40,19.30
2018,10,18,13,41,19.30
2018,10,18,13,42,19.30
2018,10,18,13,43,19.40
2018,10,18,13,44,19.40
2018,10,18,13,45,19.40
2018,10,18,13,46,19.50
2018,10,18,13,47,19.50
2018,10,18,13,48,19.60
2018,10,18,13,49,19.60
2018,10,18,13,50,19.70
2018,10,18,13,51,19.70
2018,10,18,13,52,19.60
2018,10,18,13,53,19.60
2018,10,18,13,54,19.60
2018,10,18,13,55,19.60
2018,10,18,13,56,19.60
2018,10,18,13,57,19.60
2018,10,18,13,58,19.60
2018,10,18,13,59,19.70
2018,10,18,14,00,19.70
2018,10,18,14,01,19.70
2018,10,18,14,02,19.70
2018,10,18,14,03,19.70
2018,10,18,14,04,19.70
2018,10,18,14,05,19.70
2018,10,18,14,06,19.80
2018,10,18,14,07,19.80
2018,10,18,14,08,19.80
2018,10,18,14,09,19.80
2018,10,18,14,10,19.80
2018,10,18,14,11,19.80
2018,10,18,14,12,19.90
2018,10,18,14,13,19.90
2018,10,18,14,14,19.90
2018,10,18,14,15,19.90
2018,10,18,14,16,19.90
2018,10,18,14,17,20.00
2018,10,18,14,18,20.00
2018,10,18,14,19,19.90
2018,10,18,14,20,20.00
2018,10,18,14,21,20.00
2018,10,18,14,22,20.00
2018,10,18,14,23,20.00
2018,10,18,14,24,20.00
2018,10,18,14,25,20.00
2018,10,18,14,26,19.90
2018,10,18,14,27,19.90
2018,10,18,14,28,19.90
2018,10,18,14,29,19.90
2018,10,18,14,30,19.90
2018,10,18,14,31,19.90
2018,10,18,14,32,19.90
2018,10,18,14,33,19.80
2018,10,18,14,34,19.80
2018,10,18,14,35,19.80
2018,10,18,14,36,19.80
2018,10,18,14,37,19.80
2018,10,18,14,38,19.80
2018,10,18,14,39,19.80
2018,10,18,14,40,19.90
2018,10,18,14,41,19.90
2018,10,18,14,42,19.90
2018,10,18,14,43,19.90
2018,10,18,14,44,19.90
2018,10,18,14,45,19.90
2018,10,18,14,46,19.80
2018,10,18,14,47,19.80
2018,10,18,14,48,19.80
2018,10,18,14,49,19.70
2018,10,18,14,50,19.70
2018,10,18,14,51,19.70
2018,10,18,14,52,19.70
2018,10,18,14,53,19.60
2018,10,18,14,54,19.60
2018,10,18,14,55,19.60
2018,10,18,14,56,19.60
2018,10,18,14,57,19.60
2018,10,18,14,58,19.60
2018,10,18,14,59,19.50
2018,10,18,15,00,19.50
2018,10,18,15,01,19.50
2018,10,18,15,02,19.40
2018,10,18,15,03,19.40
2018,10,18,15,04,19.40
2018,10,18,15,05,19.40
2018,10,18,15,06,19.40
2018,10,18,15,07,19.30
2018,10,18,15,08,19.30
2018,10,18,15,09,19.30
2018,10,18,15,10,19.30
2018,10,18,15,11,19.30
2018,10,18,15,12,19.30
2018,10,18,15,13,19.20
2018,10,18,15,14,19.20
2018,10,18,15,15,19.20
2018,10,18,15,16,19.30
2018,10,18,15,17,19.30
2018,10,18,15,18,19.30
2018,10,18,15,19,19.30
2018,10,18,15,20,19.30
2018,10,18,15,21,19.30
2018,10,18,15,22,19.30
2018,10,18,15,23,19.30
2018,10,18,15,24,19.30
2018,10,18,15,25,19.30
2018,10,18,15,26,19.30
2018,10,18,15,27,19.30
2018,10,18,15,28,19.30
2018,10,18,15,29,19.30
2018,10,18,15,30,19.30
2018,10,18,15,31,19.40
2018,10,18,15,32,19.40
2018,10,18,15,33,19.40
2018,10,18,15,34,19.40
2018,10,18,15,35,19.40
2018,10,18,15,36,19.40
2018,10,18,15,37,19.40
2018,10,18,15,38,19.40
2018,10,18,15,39,19.40
2018,10,18,15,40,19.40
2018,10,18,15,41,19.40
2018,10,18,15,42,19.50
2018,10,18,15,43,19.50
2018,10,18,15,44,19.50
2018,10,18,15,45,19.60
2018,10,18,15,46,19.60
2018,10,18,15,47,19.60
2018,10,18,15,48,19.60
2018,10,18,15,49,19.60
2018,10,18,15,50,19.60
2018,10,18,15,51,19.60
2018,10,18,15,52,19.70
2018,10,18,15,53,19.70
2018,10,18,15,54,19.60
2018,10,18,15,55,19.60
2018,10,18,15,56,19.60
2018,10,18,15,57,19.60
2018,10,18,15,58,19.60
2018,10,18,15,59,19.60
2018,10,18,16,00,19.50
2018,10,18,16,01,19.50
2018,10,18,16,02,19.60
2018,10,18,16,03,19.60
2018,10,18,16,04,19.60
2018,10,18,16,05,19.60
2018,10,18,16,06,19.60
2018,10,18,16,07,19.60
2018,10,18,16,08,19.60
2018,10,18,16,09,19.60
2018,10,18,16,10,19.60
2018,10,18,16,11,19.60
2018,10,18,16,12,19.60
2018,10,18,16,13,19.60
2018,10,18,16,14,19.60
2018,10,18,16,15,19.60
2018,10,18,16,16,19.60
2018,10,18,16,17,19.70
2018,10,18,16,18,19.70
2018,10,18,16,19,19.70
2018,10,18,16,20,19.70
2018,10,18,16,21,19.70
2018,10,18,16,22,19.70
2018,10,18,16,23,19.70
2018,10,18,16,24,19.70
2018,10,18,16,25,19.70
2018,10,18,16,26,19.80
2018,10,18,16,27,19.80
2018,10,18,16,28,19.80
2018,10,18,16,29,19.80
2018,10,18,16,30,19.80
2018,10,18,16,31,19.70
2018,10,18,16,32,19.70
2018,10,18,16,33,19.70
2018,10,18,16,34,19.60
2018,10,18,16,35,19.60
2018,10,18,16,36,19.50
2018,10,18,16,37,19.50
2018,10,18,16,38,19.50
2018,10,18,16,39,19.40
2018,10,18,16,40,19.40
2018,10,18,16,41,19.30
2018,10,18,16,42,19.30
2018,10,18,16,43,19.30
2018,10,18,16,44,19.30
2018,10,18,16,45,19.20
2018,10,18,16,46,19.20
2018,10,18,16,47,19.20
2018,10,18,16,48,19.20
2018,10,18,16,49,19.10
2018,10,18,16,50,19.10
2018,10,18,16,51,19.10
2018,10,18,16,52,19.10
2018,10,18,16,53,19.00
2018,10,18,16,54,19.00
2018,10,18,16,55,19.00
2018,10,18,16,56,18.90
2018,10,18,16,57,18.90
2018,10,18,16,58,18.90
2018,10,18,16,59,18.90
2018,10,18,17,00,18.90
2018,10,18,17,01,18.80
2018,10,18,17,02,18.80
2018,10,18,17,03,18.80
2018,10,18,17,04,18.80
2018,10,18,17,05,18.80
2018,10,18,17,06,18.80
2018,10,18,17,07,18.80
2018,10,18,17,08,18.80
2018,10,18,17,09,18.80
2018,10,18,17,10,18.80
2018,10,18,17,11,18.80
2018,10,18,17,12,18.80
2018,10,18,17,13,18.80
2018,10,18,17,14,18.80
2018,10,18,17,15,18.80
2018,10,18,17,16,18.70
2018,10,18,17,17,18.70
2018,10,18,17,18,18.70
2018,10,18,17,19,18.70
2018,10,18,17,20,18.70
2018,10,18,17,21,18.70
2018,10,18,17,22,18.70
2018,10,18,17,23,18.70
2018,10,18,17,24,18.70
2018,10,18,17,25,18.70
2018,10,18,17,26,18.70
2018,10,18,17,27,18.70
2018,10,18,17,28,18.70
2018,10,18,17,29,18.70
2018,10,18,17,30,18.70
2018,10,18,17,31,18.70
2018,10,18,17,32,18.70
2018,10,18,17,33,18.70
2018,10,18,17,34,18.70
2018,10,18,17,35,18.70
2018,10,18,17,36,18.70
2018,10,18,17,37,18.60
2018,10,18,17,38,18.60
2018,10,18,17,39,18.60
2018,10,18,17,40,18.60
2018,10,18,17,41,18.50
2018,10,18,17,42,18.50
2018,10,18,17,43,18.50
2018,10,18,17,44,18.40